Flag for Germany Past Weather in Singen (Hohentwiel), Baden-Württemberg, Germany — Yesterday and Last 2 Weeks

Now
59 °F

Clear.


Feels Like: 59 °F
Forecast: 52 / 63 °F
Wind: No wind

Location: Zurich-Kloten

Current Time: May 28, 2016 at 2:13:48 AM

Latest Report: May 28, 2016 at 1:20 AM


Visibility: 10 mi

Pressure: 29.95 "Hg

Humidity: 88%

Dew Point: 55 °F

Location of Singen (Hohentwiel)Location

Past Weather in Singen (Hohentwiel) — Graph

°F

Singen (Hohentwiel) Temperature Yesterday

Maximum temperature yesterday: 81 °F (at 5:50 PM)
Minimum temperature yesterday: 55 °F (at 2:50 AM)
Average temperature yesterday: 68 °F

High & Low Weather Summary for the Past Weeks

 TemperatureHumidityPressure
High81 °F (May 22, 3:20 PM)100% (May 13, 8:20 PM)30.21 "Hg (May 13, 8:20 PM)
Low39 °F (May 16, 3:50 AM)31% (May 21, 3:50 PM)29.50 "Hg (May 13, 2:50 AM)
Average55 °F74%29.97 "Hg
* Reported May 13 12:20 AM — May 28 12:50 AM, Singen (Hohentwiel), Weather by CustomWeather, © 2016

Note: Actual official high and low records may vary slightly from our data, if they occured in-between our weather recording intervals... More about our weather records

Advertising

Singen (Hohentwiel) Weather History for the Previous 24 Hours

Scroll right to see more
 ConditionsComfort  
Time TempWeatherWind HumidityBarometerVisibility
12:50 AM
Sat, May 28
61 °FClear.1 mph88%29.95 "Hg10 mi
12:20 AM63 °FClear.2 mph83%29.95 "Hg10 mi
11:50 PM
Fri, May 27
63 °FPassing clouds.2 mph83%29.95 "HgN/A
11:20 PM64 °FScattered showers. Passing clouds.6 mph83%29.95 "HgN/A
10:50 PM64 °FPartly cloudy.5 mph78%29.95 "HgN/A
10:20 PM64 °FPartly cloudy.7 mph78%29.95 "HgN/A
9:50 PM66 °FSunny.6 mph68%29.95 "Hg10 mi
9:20 PM66 °FBroken clouds.7 mph64%29.95 "HgN/A
8:50 PM66 °FScattered clouds.7 mph68%29.95 "HgN/A
8:20 PM70 °FScattered clouds.13 mph60%29.95 "HgN/A
7:50 PM77 °FThundershowers. Scattered clouds.3 mph47%29.92 "HgN/A
7:20 PM77 °FPassing clouds.5 mph47%29.92 "HgN/A
6:50 PM79 °FScattered clouds.5 mph48%29.92 "HgN/A
6:20 PM79 °FScattered clouds.5 mph42%29.92 "HgN/A
5:50 PM81 °FPassing clouds.3 mph39%29.92 "HgN/A
5:20 PM79 °FPassing clouds.3 mph39%29.92 "HgN/A
4:50 PM79 °FSunny.3 mph45%29.95 "Hg10 mi
4:20 PM79 °FPassing clouds.3 mph45%29.95 "HgN/A
3:50 PM79 °FSunny.3 mph45%29.95 "Hg10 mi
3:20 PM79 °FPassing clouds.3 mph45%29.95 "HgN/A
2:50 PM77 °FSunny.3 mph44%29.95 "Hg10 mi
2:20 PM77 °FPartly sunny.5 mph44%29.95 "HgN/A
1:50 PM77 °FPartly sunny.2 mph47%29.95 "HgN/A
1:20 PM75 °FPartly sunny.5 mph50%29.98 "HgN/A
12:50 PM75 °FPartly sunny.3 mph50%29.98 "HgN/A
12:20 PM73 °FPartly sunny.3 mph50%29.98 "HgN/A
11:50 AM73 °FPartly sunny.3 mph53%29.98 "HgN/A
11:20 AM72 °FPartly sunny.5 mph57%29.98 "HgN/A
10:50 AM70 °FPassing clouds.5 mph60%29.98 "HgN/A
10:20 AM70 °FPassing clouds.7 mph64%29.98 "HgN/A
9:50 AM68 °FPassing clouds.7 mph64%30.01 "HgN/A
9:20 AM66 °FPassing clouds.5 mph68%30.01 "HgN/A
8:50 AM64 °FPassing clouds.6 mph73%30.01 "HgN/A
8:20 AM64 °FSunny.6 mph73%29.98 "Hg10 mi
7:50 AM61 °FPassing clouds.5 mph83%29.98 "HgN/A
7:20 AM59 °FClear.5 mph88%29.98 "HgN/A
6:50 AM57 °FSunny.5 mph88%29.98 "Hg10 mi
6:20 AM57 °FClear.6 mph88%29.95 "Hg10 mi
5:50 AM55 °FClear.3 mph88%29.95 "Hg10 mi
5:20 AM55 °FClear.1 mph88%29.95 "Hg10 mi
4:50 AM55 °FClear.No wind88%29.95 "Hg10 mi
4:20 AM55 °FClear.No wind88%29.95 "Hg10 mi
3:50 AM55 °FClear.No wind94%29.95 "Hg10 mi
3:20 AM55 °FClear.No wind88%29.95 "Hg10 mi
2:50 AM55 °FClear.3 mph88%29.95 "Hg10 mi
Weather by CustomWeather, © 2016

See weather overviewHow to use our weather pages